Weather History for Point Pleasant, WV

Change the Weather History Date:

Wednesday, January 9, 2008

  Actual Average (KHTS) Record (KHTS)
Temperature  
Mean Temperature 46 °F 34 °F  
Max Temperature 60 °F 42 °F 72 °F (1946)
Min Temperature 33 °F 25 °F -1 °F (1970)
Degree Days  
Heating Degree Days 18 31  
Month to date heating degree days 279  
Since 1 July heating degree days 2034  
Cooling Degree Days 0 0  
Month to date cooling degree days 0  
Year to date cooling degree days 0  
Moisture  
Dew Point 35 °F    
Average Humidity 62    
Maximum Humidity 87    
Minimum Humidity 44    
Precipitation  
Precipitation 0.00 in 0.09 in 1.84 in (1920)
Month to date precipitation 0.86  
Year to date precipitation 0.86  
Snow  
Snow 0.00 in - - ()
Month to date snowfall  
Since 1 September snowfall  
Snow Depth -    
Sea Level Pressure  
Sea Level Pressure 30.07 in    
Wind  
Wind Speed 9 mph (WSW)    
Max Wind Speed 23 mph    
Max Gust Speed 38 mph    
Visibility 10 miles    
Events Rain    
T = Trace of Precipitation, MM = Missing Value Source: NWS Daily Summary

Daily Weather History Graph

Daily Weather History Graph

Search for Another Location

Airport:

Trip Planner

Search our weather history database for the weather conditions in past years. The results will help you decide how hot, cold, wet, or windy it might be!

Date:

Astronomy

Jan. 09, 2008 Rise Set
Actual Time 7:47 AM EST 5:23 PM EST
Civil Twilight 7:17 AM EST 5:53 PM EST
Nautical Twilight 6:44 AM EST 6:26 PM EST
Astronomical Twilight 6:12 AM EST 6:58 PM EST
Moon 8:48 AM EST (1/9) 6:40 PM EST (1/9)
Length of Visible Light 10h 35m
Length of Day
9h 36m
New Moon, 2% of the Moon is Illuminated
Jan 9
New Moon
Jan 15
First Quarter
Jan 22
Full
Jan 30
Last Quarter
Feb 6
New

Hourly Weather History & Observations

Time (EST) Temp. Windchill Dew Point Humidity Pressure Visibility Wind Dir Wind Speed Gust Speed Precip Events Conditions
12:16 AM 60.8 °F - 50.0 °F 68% 29.71 in 7.0 mi SSW 8.1 mph 18.4 mph N/A Rain Light Rain
12:36 AM 60.8 °F - 50.0 °F 68% 29.68 in 10.0 mi South 9.2 mph 17.3 mph N/A Rain Light Rain
12:56 AM 60.8 °F - 50.0 °F 68% 29.68 in 10.0 mi SSW 13.8 mph 23.0 mph N/A Rain Rain
1:16 AM 60.8 °F - 50.0 °F 68% 29.66 in 10.0 mi South 12.7 mph 17.3 mph N/A Rain Light Rain
1:36 AM 60.8 °F - 50.0 °F 68% 29.67 in 10.0 mi SSW 10.4 mph 23.0 mph N/A   Overcast
1:56 AM 57.2 °F - 50.0 °F 77% 29.72 in 1.2 mi WSW 23.0 mph 38.0 mph N/A Rain Rain
2:16 AM 57.2 °F - 51.8 °F 82% 29.74 in 7.0 mi WSW 17.3 mph 25.3 mph N/A Rain Light Rain
2:36 AM 59.0 °F - 46.4 °F 63% 29.79 in 10.0 mi West 16.1 mph 32.2 mph N/A   Overcast
2:56 AM 55.4 °F - 42.8 °F 63% 29.82 in 10.0 mi West 12.7 mph 38.0 mph N/A   Overcast
3:16 AM 53.6 °F - 42.8 °F 67% 29.83 in 10.0 mi WSW 15.0 mph 25.3 mph N/A   Mostly Cloudy
3:36 AM 53.6 °F - 41.0 °F 62% 29.85 in 10.0 mi WSW 17.3 mph 29.9 mph N/A   Mostly Cloudy
3:56 AM 53.6 °F - 41.0 °F 62% 29.88 in 10.0 mi WSW 16.1 mph 27.6 mph N/A   Overcast
4:16 AM 51.8 °F - 35.6 °F 54% 29.91 in 10.0 mi West 17.3 mph 32.2 mph N/A   Overcast
4:36 AM 51.8 °F - 35.6 °F 54% 29.93 in 10.0 mi West 16.1 mph 26.5 mph N/A   Overcast
4:56 AM 50.0 °F - 35.6 °F 58% 29.95 in 10.0 mi WSW 12.7 mph 33.4 mph N/A   Mostly Cloudy
5:16 AM 50.0 °F - 35.6 °F 58% 29.99 in 10.0 mi WSW 16.1 mph 24.2 mph N/A   Overcast
5:36 AM 50.0 °F - 33.8 °F 54% 30.02 in 10.0 mi West 17.3 mph 27.6 mph N/A   Overcast
5:56 AM 50.0 °F - 33.8 °F 54% 30.03 in 10.0 mi West 8.1 mph - N/A   Overcast
6:16 AM 48.2 °F - 33.8 °F 58% 30.05 in 10.0 mi West 10.4 mph 24.2 mph N/A   Overcast
6:36 AM 48.2 °F - 33.8 °F 58% 30.07 in 10.0 mi West 10.4 mph 21.9 mph N/A   Overcast
7:16 AM 46.4 °F 42.9 °F 33.8 °F 62% 30.11 in 10.0 mi West 6.9 mph - N/A   Overcast
7:56 AM 44.6 °F 42.2 °F 32.0 °F 61% 30.14 in 10.0 mi WNW 4.6 mph - N/A   Mostly Cloudy
8:16 AM 44.6 °F 40.7 °F 32.0 °F 61% 30.15 in 10.0 mi West 6.9 mph - N/A   Overcast
8:36 AM 44.6 °F 40.7 °F 32.0 °F 61% 30.16 in 10.0 mi WSW 6.9 mph - N/A   Overcast
8:56 AM 44.6 °F 41.4 °F 32.0 °F 61% 30.16 in 10.0 mi WSW 5.8 mph - N/A   Overcast
9:16 AM 44.6 °F 41.4 °F 32.0 °F 61% 30.18 in 10.0 mi West 5.8 mph - N/A   Overcast
9:36 AM 44.6 °F 41.4 °F 32.0 °F 61% 30.19 in 10.0 mi West 5.8 mph 9.2 mph N/A   Overcast
9:56 AM 44.6 °F 42.2 °F 32.0 °F 61% 30.20 in 10.0 mi WNW 4.6 mph - N/A   Overcast
10:16 AM 44.6 °F 41.4 °F 32.0 °F 61% 30.20 in 10.0 mi West 5.8 mph - N/A   Overcast
10:36 AM 44.6 °F 40.7 °F 32.0 °F 61% 30.21 in 10.0 mi West 6.9 mph - N/A   Overcast
10:56 AM 44.6 °F 40.2 °F 32.0 °F 61% 30.22 in 10.0 mi West 8.1 mph 17.3 mph N/A   Overcast
11:16 AM 46.4 °F 43.5 °F 32.0 °F 57% 30.21 in 10.0 mi West 5.8 mph - N/A   Overcast
11:36 AM 46.4 °F 42.9 °F 32.0 °F 57% 30.20 in 10.0 mi WNW 6.9 mph - N/A   Overcast
11:56 AM 50.0 °F - 32.0 °F 50% 30.19 in 10.0 mi West 4.6 mph - N/A   Overcast
12:16 PM 50.0 °F - 32.0 °F 50% 30.18 in 10.0 mi West 6.9 mph - N/A   Overcast
12:36 PM 50.0 °F - 32.0 °F 50% 30.18 in 10.0 mi WSW 4.6 mph - N/A   Mostly Cloudy
12:56 PM 51.8 °F - 32.0 °F 47% 30.17 in 10.0 mi West 5.8 mph - N/A   Scattered Clouds
1:16 PM 51.8 °F - 32.0 °F 47% 30.17 in 10.0 mi SW 9.2 mph - N/A   Scattered Clouds
1:51 PM 51.8 °F - 30.2 °F 44% 30.16 in 10.0 mi SW 6.9 mph - N/A   Clear
1:56 PM 50.0 °F - 30.2 °F 47% 30.16 in 10.0 mi West 8.1 mph - N/A   Clear
2:16 PM 51.8 °F - 30.2 °F 44% 30.16 in 10.0 mi WNW 4.6 mph - N/A   Clear
2:36 PM 51.8 °F - 30.2 °F 44% 30.16 in 10.0 mi West 5.8 mph - N/A   Clear
2:56 PM 51.8 °F - 32.0 °F 47% 30.17 in 10.0 mi SW 5.8 mph - N/A   Clear
3:16 PM 51.8 °F - 30.2 °F 44% 30.17 in 10.0 mi SW 6.9 mph - N/A   Clear
3:36 PM 51.8 °F - 30.2 °F 44% 30.17 in 10.0 mi WSW 5.8 mph - N/A   Clear
4:16 PM 51.8 °F - 30.2 °F 44% 30.17 in 10.0 mi West 6.9 mph - N/A   Clear
4:36 PM 50.0 °F - 30.2 °F 47% 30.17 in 10.0 mi WSW 3.5 mph - N/A   Clear
4:56 PM 46.4 °F - 30.2 °F 53% 30.17 in 10.0 mi Calm Calm - N/A   Clear
5:16 PM 44.6 °F - 30.2 °F 57% 30.17 in 10.0 mi Calm Calm - N/A   Clear
5:36 PM 42.8 °F - 32.0 °F 66% 30.18 in 10.0 mi Calm Calm - N/A   Clear
5:56 PM 41.0 °F - 32.0 °F 70% 30.19 in 10.0 mi Calm Calm - N/A   Clear
6:16 PM 41.0 °F - 30.2 °F 65% 30.18 in 10.0 mi Calm Calm - N/A   Clear
6:36 PM 39.2 °F - 30.2 °F 70% 30.19 in 10.0 mi Calm Calm - N/A   Clear
6:56 PM 37.4 °F - 30.2 °F 75% 30.19 in 10.0 mi Calm Calm - N/A   Clear
7:16 PM 37.4 °F - 32.0 °F 81% 30.19 in 10.0 mi Calm Calm - N/A   Clear
7:36 PM 37.4 °F - 30.2 °F 75% 30.19 in 10.0 mi Calm Calm - N/A   Clear
7:56 PM 35.6 °F - 30.2 °F 81% 30.19 in 10.0 mi Calm Calm - N/A   Clear
8:16 PM 35.6 °F - 30.2 °F 81% 30.20 in 10.0 mi Calm Calm - N/A   Clear
8:36 PM 35.6 °F - 30.2 °F 81% 30.19 in 10.0 mi Calm Calm - N/A   Clear
8:56 PM 35.6 °F - 30.2 °F 81% 30.19 in 10.0 mi Calm Calm - N/A   Clear
9:16 PM 33.8 °F - 30.2 °F 87% 30.19 in 10.0 mi Calm Calm - N/A   Clear
9:36 PM 33.8 °F - 30.2 °F 87% 30.19 in 10.0 mi Calm Calm - N/A   Clear
9:56 PM 33.8 °F - 30.2 °F 87% 30.19 in 10.0 mi Calm Calm - N/A   Clear
10:16 PM 33.8 °F - 30.2 °F 87% 30.19 in 10.0 mi Calm Calm - N/A   Clear
10:36 PM 32.0 °F - 30.2 °F 93% 30.19 in 10.0 mi Calm Calm - N/A   Clear
10:56 PM 32.0 °F - 30.2 °F 93% 30.18 in 10.0 mi Calm Calm - N/A   Clear
11:16 PM 32.0 °F - 30.2 °F 93% 30.17 in 10.0 mi Calm Calm - N/A   Clear
11:36 PM 32.0 °F - 30.2 °F 93% 30.17 in 10.0 mi Calm Calm - N/A   Clear
11:56 PM 32.0 °F - 30.2 °F 93% 30.16 in 10.0 mi Calm Calm - N/A   Clear